CAPE
29 16 25 68 217 202 320 412 511 488 386 360 408 379 395 325 350 431 545 558 585 555
30 117 251 206 148 221 271 292 467 464 412 524 399 192 428 305 272 463 339 32 26 132
124 264 106 152 317 313 322 267 393 377 477 504 503 377 393 251 374 382 254 185 318 339
321 35 74 164 256 385 397 310 269 237 417 488 63 43 126 180 70 60 103 145 133 166
151 7 128 260 182 359 483 375 219 167 254 11 2 6 15 27 8 61 11 53 61 118
141 20 91 301 376 383 469 381 235 171 168 0 1 13 26 17 10 35 69 28 68 130
155 21 108 304 421 491 471 417 364 332 160 0 2 3 4 10 28 33 40 119 266 231
124 32 105 301 315 363 451 366 316 323 204 2 3 3 5 7 29 41 46 41 22 81
149 1 174 272 273 406 370 305 264 252 260 38 2 0 0 1 6 36 57 16 18 3
52 43 197 83 117 392 471 471 392 207 197 5 3 0 0 0 7 66 27 15 23 4
20 41 102 15 4 157 424 386 95 66 32 6 3 1 0 0 33 40 74 49 27 6
83 10 29 0 0 2 53 104 18 12 5 1 0 1 1 8 19 21 60 50 50 62
29 35 0 1 0 0 11 34 115 39 8 0 1 1 0 0 4 2 8 25 13 0
39 198 99 113 0 0 0 35 78 43 18 5 1 0 1 0 61 47 17 46 13 0
CIN
-70 -56 -23 -3 0 0 0 0 0 -1 -3 -6 -6 -4 -4 -3 0 0 0 -4 -5 -9
-55 -17 0 0 0 0 0 0 0 -1 -2 -1 -6 -18 -1 -6 -11 -3 -8 -51 -83 -34
-21 -3 -13 -2 -2 0 0 0 0 0 0 -1 -3 -1 0 -9 -8 -5 -10 -22 -14 -12
-5 -23 -18 0 -1 0 0 0 0 -1 0 0 -44 -30 -20 -14 -44 -34 -18 -18 -23 -17
-13 -35 -5 0 0 0 0 0 -3 -2 -4 -63 -4 -19 -42 -38 -37 -21 -57 -37 -33 -15
-12 -26 -2 0 0 0 0 0 -2 -6 -19 0 0 -38 -46 -50 -46 -31 -29 -32 -23 -9
-7 -16 -1 0 0 0 0 0 0 0 -20 0 0 0 -1 -25 -37 -28 -38 -11 -14 0
-8 -21 -6 0 0 0 -1 0 0 0 -2 -2 0 0 0 0 -24 -25 -30 -17 -5 -4
-7 -4 -9 -1 0 0 0 -2 -4 -2 0 -29 0 0 0 0 0 -35 -14 -2 -2 0
-32 -27 -17 -42 -16 0 0 0 0 -5 -3 -27 0 0 0 0 -1 -18 -5 -20 -9 0
-107 -34 -17 -31 -32 -18 0 0 -15 -13 -15 -59 0 0 0 0 -18 -20 -16 -9 -17 -25
-69 -126 -51 0 0 -16 -33 -12 -35 -28 -49 0 0 0 0 -17 -4 -3 -8 -3 -3 -1
-137 -117 -13 -3 0 0 -26 -41 -14 -25 -58 0 0 0 0 0 -3 -5 -2 -1 -2 0
-175 -76 -98 -71 0 0 0 -48 -18 -17 -31 0 0 0 0 0 0 -6 -1 -2 -7 0
Wind_Speed
4 1 1 1 2 1 3 4 5 4 3 4 5 5 6 5 5 4 2 5 4 2
3 2 0 1 1 3 4 5 5 5 4 4 5 5 5 4 5 5 5 4 2 2
3 1 3 3 4 5 5 6 6 5 4 4 5 5 5 5 5 5 4 4 5 5
4 3 4 3 2 4 6 6 6 6 5 5 5 5 4 5 5 6 6 6 6 7
5 4 4 4 4 5 6 6 6 6 5 5 5 5 6 6 5 6 6 6 7 8
5 4 4 5 4 4 7 8 7 6 6 7 7 7 6 6 6 5 6 7 7 8
5 4 5 5 5 6 7 8 7 7 8 7 7 7 7 7 7 7 7 6 7 9
6 5 6 6 5 6 7 7 7 8 9 8 7 5 8 8 7 8 8 8 7 6
6 6 7 6 6 6 8 8 8 7 8 7 5 8 8 8 7 7 8 8 8 9
7 7 8 7 7 7 8 7 7 6 8 8 8 7 9 8 7 7 8 8 9 7
8 8 7 7 7 7 7 7 6 5 6 8 6 7 8 6 8 7 8 9 9 10
10 9 8 8 7 6 7 6 5 6 7 7 5 5 9 7 6 7 9 10 9 12
10 10 8 8 8 6 7 8 8 9 7 8 6 3 7 6 4 6 6 8 10 10
11 10 9 8 6 8 9 9 9 10 8 8 6 4 4 8 6 9 7 8 7 6
Wind_Direction
162 137 239 259 357 175 186 148 154 139 135 159 162 166 179 188 190 191 210 147 121 121
139 212 174 78 143 145 136 151 146 132 148 162 146 152 151 155 158 164 161 136 146 141
135 168 104 132 147 132 130 148 146 142 151 147 129 139 143 142 153 150 139 147 140 139
130 128 129 139 147 147 138 149 158 158 154 120 123 124 147 141 143 143 147 143 142 129
138 133 125 108 115 136 131 146 159 164 148 123 124 133 136 133 144 145 137 127 129 126
143 119 115 108 115 118 132 138 146 159 139 136 137 137 125 120 127 129 122 128 127 131
142 113 122 106 102 119 119 128 140 142 129 128 127 126 126 127 126 123 120 132 128 128
139 120 128 110 110 124 122 124 130 131 123 121 122 129 130 123 118 120 114 106 97 108
147 130 130 114 108 114 117 129 133 130 127 127 129 128 113 126 120 121 121 113 109 111
146 137 133 119 112 119 125 127 131 133 134 122 130 133 130 136 130 128 128 129 115 101
156 143 140 127 115 123 120 115 108 125 127 129 131 143 146 156 135 127 131 125 124 126
164 157 155 135 127 122 133 122 108 115 118 115 134 154 145 145 128 133 129 127 136 136
176 166 164 142 133 120 134 122 118 111 109 113 128 150 124 104 113 114 116 116 110 92
178 177 165 150 138 130 134 129 126 118 125 124 129 105 118 140 139 135 128 131 129 124